| time (UTC) | temp F | wind direction | speed knots | gust knots | rain 1hr in | rain 24hr in | rain mn in | humidity % | barometer mb |
| 20260510213050 | 45 | 348 | 3.5 | 7.0 | 0.00 | 0.00 | 0.00 | 78 | 1013.2 |
| 20260510211548 | 46 | 61 | 0.0 | 0.9 | 0.00 | 0.00 | 0.00 | 76 | 1013.0 |
| 20260510210048 | 46 | 61 | 0.0 | 1.7 | 0.00 | 0.00 | 0.00 | 74 | 1012.8 |
| 20260510204546 | 47 | 62 | 0.0 | 1.7 | 0.00 | 0.00 | 0.00 | 74 | 1013.1 |
| 20260510203044 | 48 | 36 | 0.0 | 1.7 | 0.00 | 0.00 | 0.00 | 72 | 1013.0 |
| 20260510201543 | 49 | 36 | 0.0 | 0.9 | 0.00 | 0.00 | 0.00 | 71 | 1013.0 |
| 20260510200043 | 50 | 36 | 0.0 | 1.7 | 0.00 | 0.00 | 0.00 | 70 | 1013.0 |
| 20260510194542 | 50 | 36 | 0.9 | 2.6 | 0.00 | 0.00 | 0.00 | 68 | 1013.0 |
| 20260510193043 | 51 | 22 | 0.9 | 7.0 | 0.00 | 0.00 | 0.00 | 65 | 1013.0 |
| 20260510191549 | 52 | 355 | 1.7 | 5.2 | 0.00 | 0.00 | 0.00 | 64 | 1013.1 |
| 20260510190050 | 52 | 9 | 2.6 | 7.0 | 0.00 | 0.00 | 0.00 | 62 | 1013.1 |
| 20260510184539 | 53 | 31 | 3.5 | 7.0 | 0.00 | 0.00 | 0.00 | 63 | 1013.1 |
| 20260510183039 | 54 | 31 | 5.2 | 8.7 | 0.00 | 0.00 | 0.00 | 60 | 1013.1 |
| 20260510181538 | 54 | 32 | 6.1 | 11.3 | 0.00 | 0.00 | 0.00 | 60 | 1013.1 |
| 20260510180043 | 54 | 16 | 2.6 | 7.8 | 0.00 | 0.00 | 0.00 | 64 | 1013.1 |
| 20260510174540 | 54 | 32 | 3.5 | 9.6 | 0.00 | 0.00 | 0.00 | 62 | 1013.1 |
| 20260510173038 | 55 | 44 | 7.0 | 11.3 | 0.00 | 0.00 | 0.00 | 59 | 1013.1 |
| 20260510171542 | 54 | 18 | 3.5 | 7.8 | 0.00 | 0.00 | 0.00 | 61 | 1013.2 |
| 20260510170034 | 55 | 29 | 5.2 | 13.0 | 0.00 | 0.00 | 0.00 | 57 | 1013.4 |
| 20260510164531 | 56 | 24 | 7.0 | 11.3 | 0.00 | 0.00 | 0.00 | 58 | 1013.5 |
| 20260510163028 | 56 | 5 | 4.3 | 9.6 | 0.00 | 0.00 | 0.00 | 62 | 1013.6 |
| 20260510161526 | 55 | 35 | 3.5 | 8.7 | 0.00 | 0.00 | 0.00 | 62 | 1013.9 |
| 20260510160025 | 56 | 15 | 4.3 | 9.6 | 0.00 | 0.00 | 0.00 | 62 | 1014.1 |
| 20260510154522 | 55 | 33 | 2.6 | 10.4 | 0.00 | 0.00 | 0.00 | 66 | 1014.2 |
| 20260510153022 | 56 | 23 | 4.3 | 9.6 | 0.00 | 0.00 | 0.00 | 64 | 1014.4 |
| 20260510151519 | 56 | 71 | 5.2 | 12.2 | 0.00 | 0.00 | 0.00 | 66 | 1014.4 |
| 20260510150017 | 55 | 27 | 4.3 | 12.2 | 0.00 | 0.00 | 0.00 | 66 | 1014.9 |
| 20260510144522 | 55 | 34 | 5.2 | 10.4 | 0.00 | 0.00 | 0.00 | 67 | 1014.8 |
| 20260510143019 | 55 | 47 | 4.3 | 11.3 | 0.00 | 0.00 | 0.00 | 68 | 1015.1 |
| 20260510141511 | 54 | 57 | 4.3 | 10.4 | 0.00 | 0.00 | 0.00 | 69 | 1015.2 |
| 20260510140010 | 55 | 43 | 5.2 | 13.9 | 0.00 | 0.00 | 0.00 | 68 | 1015.4 |
| 20260510134509 | 54 | 16 | 6.1 | 13.0 | 0.00 | 0.00 | 0.00 | 70 | 1015.5 |
| 20260510133013 | 55 | 22 | 5.2 | 9.6 | 0.00 | 0.00 | 0.00 | 70 | 1015.6 |
| 20260510131503 | 54 | 16 | 6.1 | 12.2 | 0.00 | 0.00 | 0.00 | 74 | 1015.8 |
| 20260510130100 | 53 | 59 | 7.8 | 11.3 | 0.00 | 0.00 | 0.00 | 73 | 1015.9 |
| 20260510124604 | 53 | 20 | 6.1 | 10.4 | 0.00 | 0.00 | 0.00 | 74 | 1016.0 |
| 20260510123057 | 53 | 45 | 6.1 | 10.4 | 0.00 | 0.00 | 0.00 | 76 | 1016.2 |
| 20260510121557 | 52 | 61 | 5.2 | 9.6 | 0.00 | 0.00 | 0.00 | 78 | 1016.5 |
| 20260510120051 | 51 | 39 | 6.1 | 13.0 | 0.00 | 0.00 | 0.00 | 77 | 1016.7 |
| 20260510114549 | 51 | 50 | 5.2 | 10.4 | 0.00 | 0.00 | 0.00 | 78 | 1016.8 |
| 20260510113046 | 51 | 49 | 4.3 | 12.2 | 0.00 | 0.00 | 0.00 | 80 | 1016.9 |
| 20260510111604 | 51 | 50 | 5.2 | 10.4 | 0.00 | 0.00 | 0.00 | 80 | 1017.1 |
| 20260510110043 | 50 | 38 | 5.2 | 13.0 | 0.00 | 0.00 | 0.00 | 81 | 1017.3 |
| 20260510104542 | 49 | 53 | 7.8 | 13.9 | 0.00 | 0.00 | 0.00 | 81 | 1017.3 |
| 20260510103040 | 49 | 26 | 4.3 | 11.3 | 0.00 | 0.00 | 0.00 | 82 | 1017.5 |
| 20260510101540 | 49 | 45 | 5.2 | 13.9 | 0.00 | 0.00 | 0.00 | 83 | 1017.5 |
| 20260510100039 | 49 | 57 | 6.1 | 12.2 | 0.00 | 0.00 | 0.00 | 84 | 1017.6 |
| 20260510094537 | 49 | 28 | 7.0 | 11.3 | 0.00 | 0.00 | 0.00 | 85 | 1017.6 |
| 20260510093056 | 48 | 24 | 4.3 | 10.4 | 0.00 | 0.00 | 0.00 | 86 | 1017.7 |
| 20260510091536 | 48 | 40 | 4.3 | 8.7 | 0.00 | 0.00 | 0.00 | 86 | 1017.9 |
| 20260510090049 | 48 | 34 | 7.0 | 11.3 | 0.00 | 0.00 | 0.00 | 86 | 1018.0 |
| 20260510084534 | 47 | 19 | 6.1 | 10.4 | 0.00 | 0.00 | 0.00 | 87 | 1018.0 |
| 20260510083033 | 47 | 36 | 6.1 | 11.3 | 0.00 | 0.00 | 0.00 | 87 | 1017.9 |
| 20260510081532 | 47 | 51 | 4.3 | 10.4 | 0.00 | 0.00 | 0.00 | 88 | 1017.9 |
| 20260510080031 | 47 | 68 | 4.3 | 10.4 | 0.00 | 0.00 | 0.00 | 88 | 1017.8 |
| 20260510074531 | 47 | 34 | 3.5 | 8.7 | 0.00 | 0.00 | 0.00 | 89 | 1017.9 |
| 20260510073028 | 47 | 22 | 5.2 | 11.3 | 0.00 | 0.00 | 0.00 | 89 | 1018.0 |
| 20260510071526 | 47 | 54 | 3.5 | 12.2 | 0.00 | 0.00 | 0.00 | 89 | 1017.7 |
| 20260510070028 | 47 | 52 | 5.2 | 9.6 | 0.00 | 0.00 | 0.00 | 89 | 1017.7 |
| 20260510064526 | 47 | 53 | 6.1 | 9.6 | 0.00 | 0.00 | 0.00 | 90 | 1017.5 |
| 20260510063021 | 47 | 59 | 2.6 | 8.7 | 0.00 | 0.00 | 0.00 | 90 | 1017.6 |
| 20260510061519 | 47 | 35 | 6.1 | 9.6 | 0.00 | 0.00 | 0.00 | 91 | 1017.6 |
| 20260510060017 | 47 | 46 | 5.2 | 10.4 | 0.00 | 0.00 | 0.00 | 91 | 1017.6 |
| 20260510054517 | 47 | 42 | 4.3 | 8.7 | 0.00 | 0.01 | 0.00 | 92 | 1017.4 |
| 20260510053013 | 47 | 44 | 4.3 | 8.7 | 0.00 | 0.01 | 0.00 | 92 | 1017.5 |
| 20260510051512 | 47 | 51 | 2.6 | 9.6 | 0.00 | 0.01 | 0.00 | 92 | 1017.6 |
| 20260510050011 | 47 | 30 | 3.5 | 11.3 | 0.00 | 0.01 | 0.00 | 92 | 1017.5 |
| 20260510044511 | 48 | 34 | 4.3 | 12.2 | 0.00 | 0.01 | 0.00 | 92 | 1017.6 |
| 20260510043010 | 48 | 22 | 4.3 | 7.8 | 0.00 | 0.01 | 0.00 | 91 | 1017.7 |
| 20260510041506 | 48 | 66 | 2.6 | 11.3 | 0.00 | 0.01 | 0.00 | 91 | 1017.7 |
| 20260510040008 | 48 | 31 | 6.1 | 11.3 | 0.00 | 0.01 | 0.00 | 91 | 1017.9 |
| 20260510034503 | 48 | 29 | 3.5 | 8.7 | 0.00 | 0.01 | 0.00 | 91 | 1017.9 |
| 20260510033002 | 48 | 32 | 3.5 | 10.4 | 0.00 | 0.01 | 0.00 | 91 | 1017.8 |
| 20260510031600 | 48 | 89 | 3.5 | 8.7 | 0.00 | 0.01 | 0.00 | 91 | 1018.0 |
| 20260510030100 | 48 | 26 | 3.5 | 9.6 | 0.00 | 0.01 | 0.00 | 91 | 1017.9 |
| 20260510024559 | 48 | 18 | 6.1 | 12.2 | 0.00 | 0.01 | 0.00 | 91 | 1017.9 |
| 20260510023102 | 48 | 39 | 4.3 | 10.4 | 0.00 | 0.01 | 0.00 | 91 | 1017.9 |
| 20260510021554 | 49 | 42 | 4.3 | 10.4 | 0.00 | 0.01 | 0.00 | 90 | 1017.8 |
| 20260510020052 | 49 | 360 | 6.1 | 11.3 | 0.00 | 0.01 | 0.00 | 90 | 1017.9 |
| 20260510014553 | 49 | 34 | 5.2 | 9.6 | 0.00 | 0.01 | 0.00 | 90 | 1017.8 |
| 20260510013048 | 50 | 48 | 4.3 | 8.7 | 0.00 | 0.01 | 0.00 | 89 | 1017.9 |
| 20260510011555 | 50 | 25 | 4.3 | 9.6 | 0.00 | 0.01 | 0.00 | 89 | 1018.0 |
| 20260510010054 | 50 | 35 | 2.6 | 7.8 | 0.00 | 0.01 | 0.00 | 88 | 1018.0 |
| 20260510004544 | 50 | 49 | 1.7 | 10.4 | 0.00 | 0.01 | 0.00 | 88 | 1018.0 |
| 20260510003042 | 50 | 36 | 3.5 | 9.6 | 0.00 | 0.01 | 0.00 | 88 | 1017.9 |
| 20260510001539 | 50 | 33 | 3.5 | 8.7 | 0.00 | 0.01 | 0.00 | 87 | 1017.8 |
| 20260510000037 | 50 | 5 | 6.1 | 9.6 | 0.00 | 0.01 | 0.00 | 87 | 1017.8 |
| 20260509234536 | 51 | 26 | 3.5 | 7.8 | 0.00 | 0.02 | 0.00 | 87 | 1017.7 |
| 20260509233036 | 51 | 21 | 5.2 | 8.7 | 0.00 | 0.02 | 0.00 | 86 | 1017.8 |
| 20260509231532 | 51 | 41 | 2.6 | 7.8 | 0.00 | 0.02 | 0.00 | 86 | 1017.8 |
| 20260509230029 | 51 | 36 | 4.3 | 9.6 | 0.00 | 0.02 | 0.00 | 86 | 1017.7 |
| 20260509224535 | 52 | 39 | 5.2 | 10.4 | 0.00 | 0.02 | 0.02 | 86 | 1017.6 |
| 20260509223027 | 52 | 11 | 3.5 | 9.6 | 0.00 | 0.02 | 0.02 | 86 | 1017.5 |
| 20260509221530 | 52 | 10 | 4.3 | 12.2 | 0.00 | 0.02 | 0.02 | 86 | 1017.4 |
| 20260509220029 | 53 | 13 | 1.7 | 7.8 | 0.00 | 0.02 | 0.02 | 85 | 1017.3 |
| 20260509214524 | 53 | 350 | 3.5 | 9.6 | 0.00 | 0.06 | 0.02 | 85 | 1017.3 |